TimeEST,TemperatureF,Dew PointF,Humidity,Sea Level PressureIn,VisibilityMPH,Wind Direction,Wind SpeedMPH,Gust SpeedMPH,PrecipitationIn,Events,Conditions,WindDirDegrees,DateUTC
12:54 AM,37.0,32.0,82,29.85,10.0,North,3.5,-,N/A,,Clear,360,2014-02-27 05:54:00
1:54 AM,35.1,30.9,85,29.83,10.0,NW,3.5,-,N/A,,Clear,320,2014-02-27 06:54:00
2:54 AM,34.0,30.9,89,29.83,10.0,NW,6.9,-,N/A,,Clear,310,2014-02-27 07:54:00
3:54 AM,33.1,28.9,85,29.83,10.0,NW,6.9,-,N/A,,Clear,320,2014-02-27 08:54:00
4:54 AM,33.1,28.9,85,29.84,10.0,Calm,Calm,-,N/A,,Clear,0,2014-02-27 09:54:00
5:54 AM,30.9,28.0,89,29.86,8.0,Calm,Calm,-,N/A,,Clear,0,2014-02-27 10:54:00
6:38 AM,30.2,26.6,86,29.86,7.0,Calm,Calm,-,N/A,Fog,Shallow Fog,0,2014-02-27 11:38:00
6:54 AM,30.9,28.0,89,29.87,7.0,Calm,Calm,-,N/A,Fog,Shallow Fog,0,2014-02-27 11:54:00
7:01 AM,30.2,28.4,93,29.87,7.0,Calm,Calm,-,N/A,,Clear,0,2014-02-27 12:01:00
7:54 AM,36.0,30.9,82,29.88,8.0,Calm,Calm,-,N/A,,Clear,0,2014-02-27 12:54:00
8:54 AM,39.9,33.1,77,29.89,10.0,WSW,5.8,-,N/A,,Clear,250,2014-02-27 13:54:00
9:54 AM,43.0,32.0,65,29.88,10.0,WSW,6.9,-,N/A,,Clear,240,2014-02-27 14:54:00
10:54 AM,46.9,30.9,54,29.86,10.0,WSW,8.1,-,N/A,,Clear,250,2014-02-27 15:54:00
11:54 AM,51.1,30.9,46,29.84,10.0,West,11.5,-,N/A,,Clear,260,2014-02-27 16:54:00
12:28 PM,53.6,30.2,41,29.81,10.0,West,15.0,20.7,N/A,,Clear,260,2014-02-27 17:28:00
12:54 PM,53.1,28.9,40,29.80,10.0,West,15.0,23.0,N/A,,Clear,260,2014-02-27 17:54:00
1:54 PM,57.0,28.9,34,29.77,10.0,West,10.4,17.3,N/A,,Clear,280,2014-02-27 18:54:00
2:54 PM,57.0,28.0,33,29.76,10.0,West,13.8,21.9,N/A,,Clear,260,2014-02-27 19:54:00
3:54 PM,57.9,28.0,32,29.77,10.0,WSW,10.4,20.7,N/A,,Clear,250,2014-02-27 20:54:00
4:54 PM,57.0,26.1,30,29.79,10.0,West,6.9,-,N/A,,Clear,280,2014-02-27 21:54:00
5:54 PM,54.0,27.0,35,29.82,10.0,West,5.8,-,N/A,,Clear,270,2014-02-27 22:54:00
6:54 PM,50.0,27.0,41,29.86,10.0,Calm,Calm,-,N/A,,Clear,0,2014-02-27 23:54:00
7:54 PM,39.9,28.9,65,29.88,10.0,Calm,Calm,-,N/A,,Clear,0,2014-02-28 00:54:00
8:54 PM,39.9,30.9,70,29.92,10.0,Calm,Calm,-,N/A,,Clear,0,2014-02-28 01:54:00
9:54 PM,36.0,28.9,76,29.95,10.0,Calm,Calm,-,N/A,,Clear,0,2014-02-28 02:54:00
10:54 PM,35.1,30.0,82,29.98,10.0,Calm,Calm,-,N/A,,Clear,0,2014-02-28 03:54:00
11:54 PM,30.9,27.0,85,30.00,10.0,Calm,Calm,-,N/A,,Clear,0,2014-02-28 04:54:00